RH
90 96 93 89 74 64 58 54 59 74 78 80 82 87 86 84 82 64 57 50 48 54
92 93 98 96 83 75 60 56 61 67 77 83 85 84 86 82 74 60 63 62 60 61
89 93 97 95 96 80 73 61 56 61 69 78 78 78 77 74 71 64 70 68 61 65
91 91 92 98 96 90 81 70 55 53 58 73 76 74 76 70 68 63 61 63 58 62
94 92 94 95 96 98 90 82 63 59 55 64 70 69 69 67 63 61 62 60 60 59
94 95 95 96 97 97 96 90 88 73 68 67 67 64 64 61 59 55 53 56 55 57
94 95 96 96 97 99 100 98 92 90 83 77 71 70 62 60 62 59 57 60 57 54
94 94 94 95 96 98 99 100 100 99 95 92 81 70 71 71 68 74 76 75 69 73
93 93 94 95 96 96 98 99 100 100 100 99 96 78 73 75 81 82 84 90 90 87
93 94 94 95 95 95 97 99 99 99 99 100 100 88 85 88 93 92 91 91 94 93
93 94 94 94 95 95 97 98 98 100 100 99 100 98 99 99 100 100 100 99 98 98
94 94 94 94 95 95 96 96 98 98 100 99 100 98 99 99 99 99 99 100 100 98
94 94 94 95 95 95 96 97 96 97 99 100 99 100 100 98 97 98 98 99 99 99
93 95 95 95 94 95 95 96 96 96 97 98 100 100 100 98 98 97 98 98 98 98
Wind_Speed
18 10 10 10 9 13 13 12 13 13 13 12 12 11 11 8 6 7 6 8 5 4
17 16 13 15 9 9 11 9 13 13 13 13 12 13 12 9 10 9 5 6 6 5
16 17 14 11 8 8 7 8 11 14 14 14 14 13 13 9 9 11 5 5 8 5
16 17 16 12 12 2 7 9 12 13 15 16 15 15 12 11 12 13 11 7 10 7
17 17 16 14 13 8 3 4 9 8 11 13 15 15 16 15 12 13 12 11 12 11
19 18 17 17 14 10 2 6 6 6 7 6 10 13 13 15 14 15 14 14 12 12
20 18 16 15 15 11 7 5 9 8 8 8 5 6 8 12 15 11 12 9 13 11
19 18 16 16 15 12 8 5 4 9 9 9 9 5 9 8 11 14 12 9 10 9
19 19 18 16 15 14 11 7 4 5 10 11 6 17 17 12 9 11 15 14 11 11
18 19 19 16 15 15 12 10 5 4 8 10 10 21 19 19 7 9 10 14 14 10
18 18 18 17 15 14 12 11 8 4 4 8 9 23 23 20 10 8 9 10 13 13
17 17 17 17 17 14 12 11 10 6 4 6 9 22 25 18 12 10 10 8 10 12
15 15 16 16 15 13 10 10 9 12 10 15 9 18 21 15 9 10 8 7 10 19
14 14 14 13 11 13 12 11 12 12 12 12 7 11 18 18 8 8 7 7 7 8
Wind_Direction
339 329 323 263 203 177 180 179 174 174 172 171 162 158 159 164 148 146 141 139 132 111
339 336 335 321 221 200 184 177 169 170 166 165 163 161 160 162 156 153 137 139 139 128
336 336 321 339 284 178 180 156 186 172 168 165 164 160 162 155 151 146 141 141 131 113
342 345 333 354 326 263 162 165 182 189 177 170 167 165 159 158 156 152 148 144 139 123
343 346 348 349 332 342 165 144 160 174 179 182 171 167 162 159 160 154 151 150 137 137
346 349 347 346 344 339 87 144 117 133 128 163 175 170 169 162 162 159 160 148 150 145
346 341 345 342 344 354 349 167 133 123 119 121 117 129 148 151 142 141 140 143 138 147
343 339 346 354 351 354 5 10 115 131 124 113 113 124 126 135 142 132 121 123 123 140
347 344 347 350 356 1 360 16 55 132 137 131 127 142 137 126 133 131 132 132 122 131
347 346 347 347 358 5 354 24 18 86 123 137 142 154 139 130 123 133 142 134 133 144
348 345 345 349 355 359 6 14 14 32 95 132 148 148 147 134 127 132 132 145 139 144
343 341 347 350 351 352 3 15 12 22 82 105 129 144 139 128 129 135 140 144 141 146
339 339 347 344 351 350 356 15 20 31 38 81 96 125 124 121 127 131 128 136 144 145
342 341 345 343 353 358 2 16 25 30 32 36 62 101 113 116 117 124 137 148 138 150